Mineral Point, WI

6:24 AM CST on December 17, 2017 (GMT -0600)
Iowa County

Weather History for KMRJ - October, 2012

Change the Weather History Date:

Friday, October 19, 2012

  Actual Average (KLNR) Record (KLNR)
Temperature  
Mean Temperature 44 °F -  
Max Temperature 50 °F 56 °F 80 °F (2000)
Min Temperature 39 °F 36 °F 24 °F (1996)
Degree Days  
Heating Degree Days 20    
Moisture  
Dew Point 39 °F    
Average Humidity 83    
Maximum Humidity 93    
Minimum Humidity 58    
Precipitation  
Precipitation 0.01 in - - ()
Sea Level Pressure  
Sea Level Pressure 29.52 in    
Wind  
Wind Speed 4 mph (NNE)    
Max Wind Speed 10 mph    
Max Gust Speed 20 mph    
Visibility 10 miles    
Events Rain    
Averages and records for this station are not official NWS values.
T = Trace of Precipitation, MM = Missing Value Source: NWS Daily Summary

Daily Weather History Graph

Daily Weather History Graph

Search for Another Location

Airport or City:

Trip Planner

Search our weather history database for the weather conditions in past years. The results will help you decide how hot, cold, wet, or windy it might be!

Date:

Astronomy

Oct. 19, 2012 Rise Set
Actual Time 7:19 AM CDT 6:11 PM CDT
Civil Twilight 6:51 AM CDT 6:39 PM CDT
Nautical Twilight 6:18 AM CDT 7:12 PM CDT
Astronomical Twilight 5:45 AM CDT 7:45 PM CDT
Moon 12:07 PM CDT (10/19) 9:44 PM CDT (10/19)
Length of Visible Light 11h 48m
Length of Day
10h 51m
Waxing Crescent, 24% of the Moon is Illuminated
Oct 19
Waxing Crescent
Oct 21
First Quarter
Oct 29
Full
Nov 6
Last Quarter
Nov 13
New

Hourly Weather History & Observations

Time (CDT) Temp. Windchill Dew Point Humidity Pressure Visibility Wind Dir Wind Speed Gust Speed Precip Events Conditions
1:15 AM 42.8 °F 41.1 °F 41.0 °F 93% 29.37 in 10.0 mi ESE 3.5 mph - N/A   Unknown
1:35 AM 42.8 °F - 41.0 °F 93% 29.37 in 10.0 mi Calm Calm - N/A   Overcast
1:55 AM 42.8 °F - 41.0 °F 93% 29.38 in 10.0 mi Calm Calm - N/A   Overcast
2:15 AM 42.8 °F - 41.0 °F 93% 29.38 in 10.0 mi Calm Calm - N/A   Overcast
2:35 AM 42.8 °F - 41.0 °F 93% 29.38 in 10.0 mi Calm Calm - N/A   Overcast
2:55 AM 42.8 °F 41.1 °F 41.0 °F 93% 29.38 in 10.0 mi East 3.5 mph - N/A   Overcast
3:35 AM 42.8 °F - 41.0 °F 93% 29.39 in 10.0 mi Calm Calm - N/A   Overcast
4:15 AM 42.8 °F 41.1 °F 41.0 °F 93% 29.39 in 10.0 mi ENE 3.5 mph - N/A Rain Light Rain
4:35 AM 42.8 °F - 41.0 °F 93% 29.40 in 10.0 mi Calm Calm - N/A   Overcast
4:55 AM 42.8 °F - 41.0 °F 93% 29.41 in 10.0 mi Calm Calm - N/A   Overcast
5:15 AM 42.8 °F 41.1 °F 41.0 °F 93% 29.41 in 7.0 mi North 3.5 mph - N/A Rain Light Rain
5:35 AM 42.8 °F 40.1 °F 41.0 °F 93% 29.41 in 7.0 mi North 4.6 mph - N/A Rain Light Rain
5:55 AM 42.8 °F 41.1 °F 41.0 °F 93% 29.42 in 7.0 mi North 3.5 mph - N/A Rain Light Rain
6:15 AM 42.8 °F 41.1 °F 41.0 °F 93% 29.43 in 7.0 mi North 3.5 mph - N/A Rain Light Rain
6:35 AM 42.8 °F 40.1 °F 41.0 °F 93% 29.44 in 7.0 mi North 4.6 mph - N/A   Overcast
6:55 AM 42.8 °F 40.1 °F 41.0 °F 93% 29.44 in 7.0 mi North 4.6 mph - N/A   Overcast
7:15 AM 42.8 °F 39.3 °F 41.0 °F 93% 29.44 in 10.0 mi North 5.8 mph - N/A   Overcast
7:35 AM 42.8 °F 39.3 °F 41.0 °F 93% 29.45 in 7.0 mi North 5.8 mph - N/A   Overcast
7:55 AM 42.8 °F 41.1 °F 41.0 °F 93% 29.45 in 5.0 mi North 3.5 mph - N/A   Overcast
8:15 AM 42.8 °F 39.3 °F 41.0 °F 93% 29.47 in 10.0 mi North 5.8 mph - N/A   Overcast
8:35 AM 44.6 °F 39.7 °F 41.0 °F 87% 29.48 in 10.0 mi North 9.2 mph - N/A   Overcast
8:55 AM 42.8 °F 38.0 °F 41.0 °F 93% 29.48 in 10.0 mi North 8.1 mph - N/A   Mostly Cloudy
9:15 AM 44.6 °F 40.7 °F 41.0 °F 87% 29.48 in 10.0 mi North 6.9 mph - N/A   Mostly Cloudy
9:35 AM 44.6 °F 40.2 °F 41.0 °F 87% 29.49 in 10.0 mi North 8.1 mph - N/A   Overcast
9:55 AM 44.6 °F 40.7 °F 41.0 °F 87% 29.50 in 10.0 mi North 6.9 mph - N/A   Overcast
10:15 AM 44.6 °F 39.2 °F 39.2 °F 81% 29.50 in 10.0 mi North 10.4 mph 16.1 mph N/A   Overcast
10:35 AM 46.4 °F 42.4 °F 41.0 °F 81% 29.51 in 10.0 mi North 8.1 mph - N/A   Overcast
10:55 AM 44.6 °F 39.7 °F 41.0 °F 87% 29.51 in 10.0 mi North 9.2 mph - N/A   Overcast
11:15 AM 46.4 °F 42.4 °F 41.0 °F 81% 29.52 in 10.0 mi North 8.1 mph - N/A   Overcast
11:35 AM 46.4 °F 42.4 °F 39.2 °F 76% 29.52 in 10.0 mi North 8.1 mph - N/A   Overcast
11:55 AM 46.4 °F 42.9 °F 41.0 °F 81% 29.53 in 10.0 mi North 6.9 mph - N/A   Overcast
12:35 PM 46.4 °F 41.9 °F 39.2 °F 76% 29.53 in 10.0 mi North 9.2 mph 16.1 mph N/A   Overcast
12:55 PM 48.2 °F - 39.2 °F 71% 29.53 in 10.0 mi North 6.9 mph - N/A   Overcast
1:15 PM 46.4 °F 41.5 °F 39.2 °F 76% 29.54 in 7.0 mi NNE 10.4 mph 19.6 mph N/A Rain Heavy Rain
1:35 PM 46.4 °F 41.9 °F 42.8 °F 87% 29.54 in 7.0 mi NNE 9.2 mph - 0.01 in   Overcast
1:55 PM 48.2 °F - 41.0 °F 76% 29.54 in 10.0 mi North 10.4 mph - 0.01 in   Overcast
2:15 PM 50.0 °F - 41.0 °F 71% 29.54 in 10.0 mi North 8.1 mph - N/A   Overcast
2:35 PM 50.0 °F - 39.2 °F 66% 29.55 in 10.0 mi North 9.2 mph - N/A   Overcast
2:55 PM 48.2 °F - 41.0 °F 76% 29.55 in 10.0 mi North 5.8 mph - N/A Rain Light Rain
3:15 PM 48.2 °F - 41.0 °F 76% 29.56 in 10.0 mi NNE 8.1 mph - N/A   Overcast
3:35 PM 48.2 °F - 39.2 °F 71% 29.56 in 10.0 mi NNE 5.8 mph - N/A   Overcast
4:15 PM 50.0 °F - 39.2 °F 66% 29.57 in 10.0 mi NNE 3.5 mph - N/A   Mostly Cloudy
4:35 PM 50.0 °F - 37.4 °F 62% 29.57 in 10.0 mi North 4.6 mph - N/A   Mostly Cloudy
4:55 PM 50.0 °F - 35.6 °F 58% 29.59 in 10.0 mi North 8.1 mph - N/A   Mostly Cloudy
5:15 PM 48.2 °F - 37.4 °F 66% 29.59 in 10.0 mi North 5.8 mph - N/A   Overcast
5:35 PM 46.4 °F 45.2 °F 37.4 °F 71% 29.60 in 10.0 mi North 3.5 mph - N/A   Overcast
5:55 PM 46.4 °F 44.3 °F 37.4 °F 71% 29.60 in 10.0 mi North 4.6 mph - N/A   Overcast
6:15 PM 46.4 °F 44.3 °F 37.4 °F 71% 29.61 in 10.0 mi North 4.6 mph - N/A   Overcast
6:35 PM 44.6 °F 42.2 °F 37.4 °F 76% 29.62 in 10.0 mi North 4.6 mph - N/A   Scattered Clouds
6:55 PM 44.6 °F 43.1 °F 37.4 °F 76% 29.62 in 10.0 mi NNE 3.5 mph - N/A   Scattered Clouds
7:15 PM 44.6 °F 43.1 °F 37.4 °F 76% 29.63 in 10.0 mi NNE 3.5 mph - N/A   Scattered Clouds
7:35 PM 44.6 °F - 37.4 °F 76% 29.63 in 10.0 mi Calm Calm - N/A   Scattered Clouds
7:55 PM 42.8 °F - 37.4 °F 81% 29.64 in 10.0 mi Calm Calm - N/A   Mostly Cloudy
8:15 PM 42.8 °F 41.1 °F 37.4 °F 81% 29.63 in 10.0 mi North 3.5 mph - N/A   Scattered Clouds
8:35 PM 41.0 °F 39.0 °F 37.4 °F 87% 29.65 in 10.0 mi NNE 3.5 mph - N/A   Clear
9:15 PM 41.0 °F 39.0 °F 37.4 °F 87% 29.65 in 10.0 mi NNE 3.5 mph - N/A   Clear
9:35 PM 39.2 °F 37.0 °F 35.6 °F 87% 29.66 in 10.0 mi NE 3.5 mph - N/A   Clear
10:15 PM 41.0 °F 38.0 °F 35.6 °F 81% 29.67 in 10.0 mi NNE 4.6 mph - N/A   Clear
10:55 PM 41.0 °F 39.0 °F 35.6 °F 81% 29.68 in 10.0 mi NNE 3.5 mph - N/A   Overcast
11:15 PM 41.0 °F 38.0 °F 35.6 °F 81% 29.68 in 10.0 mi NNE 4.6 mph - N/A   Overcast
11:35 PM 41.0 °F 38.0 °F 37.4 °F 87% 29.68 in 10.0 mi NNE 4.6 mph - N/A   Overcast
11:55 PM 41.0 °F 39.0 °F 35.6 °F 81% 29.68 in 10.0 mi NNE 3.5 mph - N/A   Overcast